GW2311 Weather Reports


time (UTC)temp
C
wind
direction
speed
KPH
gust
KPH
rain 1hr
cm
rain 24hr
cm
rain mn
cm
humidity
%
barometer
mb
20260503005318 25 335 0.0 0.0 0.00 0.00 0.00 17 1016.8
20260503004329 25 351 1.6 3.2 0.00 0.00 0.00 20 1016.5
20260503003339 25 338 0.0 0.0 0.00 0.00 0.00 17 1016.8
20260503002320 25 338 1.6 1.6 0.00 0.00 0.00 20 1016.6
20260503001330 25 11 0.0 0.0 0.00 0.00 0.00 19 1016.8
20260503000402 25 307 0.0 0.0 0.00 0.00 0.00 19 1016.8
20260502235342 26 265 0.0 0.0 0.00 0.00 0.00 17 1016.5
20260502234332 26 11 0.0 1.6 0.00 0.00 0.00 16 1017.1
20260502233343 26 46 0.0 3.2 0.00 0.00 0.00 17 1016.8
20260502232323 26 118 0.0 0.0 0.00 0.00 0.00 19 1017.0
20260502231334 26 80 0.0 0.0 0.00 0.00 0.00 18 1017.0
20260502230345 26 132 0.0 1.6 0.00 0.00 0.00 16 1017.3
20260502225325 25 130 0.0 1.6 0.00 0.00 0.00 20 1017.2
20260502224416 26 159 0.0 0.0 0.00 0.00 0.00 15 1017.3
20260502223316 26 213 0.0 3.2 0.00 0.00 0.00 19 1017.6
20260502222327 26 186 0.0 1.6 0.00 0.00 0.00 17 1017.7
20260502221338 26 178 1.6 4.8 0.00 0.00 0.00 18 1017.7
20260502220318 26 177 0.0 1.6 0.00 0.00 0.00 19 1017.7
20260502215329 26 166 1.6 3.2 0.00 0.00 0.00 19 1018.1
20260502214340 26 276 1.6 1.6 0.00 0.00 0.00 19 1018.4
20260502213320 26 63 0.0 1.6 0.00 0.00 0.00 20 1018.5
20260502212331 26 87 0.0 3.2 0.00 0.00 0.00 21 1018.5
20260502211342 25 146 0.0 3.2 0.00 0.00 0.00 21 1018.9
20260502210322 25 327 1.6 1.6 0.00 0.00 0.00 16 1018.7
20260502205333 25 97 0.0 3.2 0.00 0.00 0.00 15 1018.8
20260502204424 26 156 0.0 4.8 0.00 0.00 0.00 18 1018.9
20260502203324 26 182 0.0 1.6 0.00 0.00 0.00 21 1019.0
20260502202334 26 351 1.6 3.2 0.00 0.00 0.00 23 1019.1
20260502201345 25 202 0.0 1.6 0.00 0.00 0.00 19 1019.3
20260502200325 25 240 1.6 1.6 0.00 0.00 0.00 20 1019.4
20260502195337 25 148 0.0 1.6 0.00 0.00 0.00 26 1019.7
20260502194316 24 103 0.0 1.6 0.00 0.00 0.00 25 1019.5
20260502193328 23 275 1.6 3.2 0.00 0.00 0.00 26 1019.9
20260502192338 24 114 0.0 1.6 0.00 0.00 0.00 29 1020.0
20260502191318 23 327 0.0 0.0 0.00 0.00 0.00 29 1020.0
20260502190329 23 148 0.0 1.6 0.00 0.00 0.00 34 1020.1
20260502185340 22 266 0.0 0.0 0.00 0.00 0.00 33 1020.5
20260502184320 22 276 1.6 3.2 0.00 0.00 0.00 32 1020.6
20260502183351 22 237 0.0 3.2 0.00 0.00 0.00 36 1020.8
20260502182342 21 279 0.0 4.8 0.00 0.00 0.00 33 1020.9
20260502181322 21 281 3.2 3.2 0.00 0.00 0.00 36 1021.1
20260502180333 20 350 0.0 3.2 0.00 0.00 0.00 38 1021.2
20260502170337 20 277 3.2 3.2 0.00 0.00 0.00 41 1021.9
20260502164348 20 312 1.6 6.4 0.00 0.00 0.00 40 1021.5
20260502163339 20 333 0.0 1.6 0.00 0.00 0.00 43 1021.5
20260502162319 18 353 1.6 3.2 0.00 0.00 0.00 42 1021.9
20260502161350 18 312 0.0 3.2 0.00 0.00 0.00 44 1021.9
20260502160340 17 312 1.6 4.8 0.00 0.00 0.00 48 1022.0
20260502152322 13 68 0.0 0.0 0.00 0.00 0.00 55 1021.7
20260502151333 12 68 0.0 0.0 0.00 0.00 0.00 62 1021.4
20260502150344 12 68 0.0 0.0 0.00 0.00 0.00 62 1021.4
20260502130321 7 71 0.0 0.0 0.00 0.00 0.00 77 1020.6
20260502123322 7 71 0.0 0.0 0.00 0.00 0.00 76 1020.7
20260502122334 7 71 0.0 0.0 0.00 0.00 0.00 75 1020.7
20260502121345 7 71 0.0 0.0 0.00 0.00 0.00 75 1020.7
20260502120405 7 71 0.0 0.0 0.00 0.00 0.00 73 1020.6
20260502115336 8 71 0.0 0.0 0.00 0.00 0.00 79 1020.7
20260502114319 8 71 0.0 0.0 0.00 0.00 0.00 81 1020.8
20260502113327 8 71 0.0 0.0 0.00 0.00 0.00 79 1020.8
20260502112338 8 71 0.0 0.0 0.00 0.00 0.00 72 1021.1
20260502111318 8 71 0.0 0.0 0.00 0.00 0.00 72 1020.6
20260502110328 8 76 0.0 0.0 0.00 0.00 0.00 72 1021.0
20260502105419 8 76 0.0 0.0 0.00 0.00 0.00 72 1020.9
20260502104320 8 76 0.0 0.0 0.00 0.00 0.00 72 1020.9
20260502103330 8 76 0.0 0.0 0.00 0.00 0.00 72 1020.9
20260502102341 8 76 0.0 0.0 0.00 0.00 0.00 76 1021.1
20260502101321 7 76 0.0 1.6 0.00 0.00 0.00 73 1021.0
20260502100332 7 76 0.0 0.0 0.00 0.00 0.00 74 1021.0
20260502091325 8 76 0.0 0.0 0.00 0.00 0.00 69 1020.9
20260502090336 8 76 0.0 1.6 0.00 0.00 0.00 69 1021.1
20260502071332 10 76 0.0 0.0 0.00 0.00 0.00 63 1021.3
20260502070343 10 76 0.0 0.0 0.00 0.00 0.00 63 1021.3
20260502065444 10 76 0.0 0.0 0.00 0.00 0.00 60 1021.4
20260502064334 10 76 0.0 0.0 0.00 0.00 0.00 62 1021.5
20260502063405 11 76 0.0 0.0 0.00 0.00 0.00 62 1021.3
20260502062325 11 76 0.0 0.0 0.00 0.00 0.00 61 1021.2
20260502060316 11 76 0.0 0.0 0.00 0.00 0.00 61 1021.2
20260502055327 11 76 0.0 0.0 0.00 0.00 0.00 58 1021.4
20260502054338 11 76 0.0 0.0 0.00 0.00 0.00 57 1021.3
20260502053318 12 76 0.0 0.0 0.00 0.00 0.00 55 1021.2
20260502052329 12 76 0.0 0.0 0.00 0.00 0.00 54 1021.4
20260502051340 12 76 0.0 0.0 0.00 0.00 0.00 53 1021.4
20260502050320 12 76 0.0 0.0 0.00 0.00 0.00 52 1021.4
20260502045351 13 76 0.0 0.0 0.00 0.00 0.00 52 1021.4
20260502044342 13 76 0.0 0.0 0.00 0.00 0.00 49 1021.1
20260502043322 13 76 0.0 0.0 0.00 0.00 0.00 49 1021.6
20260502042333 14 76 0.0 0.0 0.00 0.00 0.00 48 1021.4
20260502041423 14 76 0.0 0.0 0.00 0.00 0.00 46 1021.2
20260502040323 15 76 0.0 0.0 0.00 0.00 0.00 46 1021.3
20260502035334 15 75 0.0 0.0 0.00 0.00 0.00 46 1021.1
20260502034345 15 76 0.0 0.0 0.00 0.00 0.00 43 1021.2
20260502033326 16 76 0.0 0.0 0.00 0.00 0.00 41 1021.1
20260502032336 16 76 0.0 0.0 0.00 0.00 0.00 40 1020.8
20260502031317 17 75 0.0 0.0 0.00 0.00 0.00 38 1020.8
20260502030347 18 75 0.0 0.0 0.00 0.00 0.00 36 1020.8
20260502025338 19 76 0.0 0.0 0.00 0.00 0.00 32 1020.6
20260502024319 19 75 0.0 0.0 0.00 0.00 0.00 29 1020.5
20260502023330 20 75 0.0 0.0 0.00 0.00 0.00 28 1020.5
20260502022340 20 75 0.0 0.0 0.00 0.00 0.00 26 1020.6
20260502021320 21 75 0.0 0.0 0.00 0.00 0.00 25 1020.6
20260502020351 21 75 0.0 0.0 0.00 0.00 0.00 23 1020.8
20260502015342 22 75 0.0 0.0 0.00 0.00 0.00 20 1020.8
20260502014322 22 76 0.0 1.6 0.00 0.00 0.00 20 1020.7
20260502013333 22 48 0.0 1.6 0.00 0.00 0.00 20 1020.7
20260502012344 22 57 0.0 1.6 0.00 0.00 0.00 19 1020.8
20260502011324 22 326 0.0 3.2 0.00 0.00 0.00 21 1021.0
20260502010335 22 70 0.0 1.6 0.00 0.00 0.00 19 1020.8